Regional Weather Roundup
Issued by NWS State College, PA

Home | Current Version | Previous Version | Text Only | Print | Product List | Glossary On
Versions: 1 2 3 4 5 6 7 8 9 10 11 12 13 14 15 16 17 18 19 20 21 22 23 24 25 26 27 28 29 30 31 32 33 34 35 36 37 38 39 40 41 42 43 44 45 46 47 48 49 50
000
ASUS41 KCTP 250403
RWRCTP

REGIONAL WEATHER ROUNDUP
NATIONAL WEATHER SERVICE STATE COLLEGE PA
1200 AM EDT SAT OCT 25 2014

Note: "fair" indicates few or no clouds below 12,000 feet with no
significant weather and/or obstructions to visibility.

* = STATION THAT DOES NOT REPORT PRECIPITATION /E.G. RAIN...SNOW...ETC/
    THUNDER OR FOG.

PAZ002>004-007>009-013>016-020>023-029>032-250500-
WESTERN PENNSYLVANIA

CITY           SKY/WX    TMP DP  RH WIND       PRES   REMARKS
ERIE           CLOUDY    53  43  68 SW5       29.97F
MEADVILLE      CLOUDY    48  42  80 S6        29.98F
FRANKLIN*      CLOUDY    46  39  76 CALM      30.00F
NEW CASTLE       N/A     45  42  89 CALM      30.01S
BEAVER COUNTY  NOT AVBL
BUTLER*        CLEAR     43  36  75 CALM      30.02F
PITTSBURGH INT PTCLDY    46  38  73 CALM      30.01S
PITTSBURGH     CLOUDY    48  37  65 S7        30.01S
INDIANA*       CLOUDY    45  39  81 CALM      30.04F
LATROBE        MOCLDY    45  39  81 SW5       30.03S
WASHINGTON CO* CLOUDY    37  36  93 CALM      30.03F
$$

PAZ004>006-010>012-017>019-024>028-033>037-041-042-045-046-049>053-250500-
CENTRAL PENNSYLVANIA

CITY           SKY/WX    TMP DP  RH WIND       PRES   REMARKS
BRADFORD       MOCLDY    41  37  86 CALM      29.96F
DUBOIS         PTCLDY    46  37  71 W6        29.98F
CLEARFIELD     CLEAR     43  38  82 SW5       29.98F
JOHNSTOWN      CLEAR     49  35  58 W10       30.00F
ALTOONA        CLEAR     50  37  61 SW6       29.99F
STATE COLLEGE  CLEAR     50  38  63 SW3       29.97S
WILLIAMSPORT   CLEAR     50  34  54 W9        29.93S
SELINSGROVE    PTCLDY    45  39  79 CALM      29.94S
FT INDIANTOWN  PTCLDY    57  39  51 W8        29.92S
CAPITAL CITY   PTCLDY    52  39  61 W7        29.94S
HARRISBURG     PTCLDY    53  39  59 NW9       29.93S
YORK           PTCLDY    48  38  68 VRB3      29.94S
$$

PAZ038>040-043-044-047-048-054-055-060>062-067>071-250500-
EASTERN PENNSYLVANIA

CITY           SKY/WX    TMP DP  RH WIND       PRES   REMARKS
SCRANTON       CLEAR     46  35  65 CALM      29.91S
MOUNT POCONO   CLEAR     48  30  49 NW14G21   29.87F
ALLENTOWN      PTCLDY    54  34  46 NW7       29.88F
QUAKERTOWN*    PTCLDY    55  32  41 NW7       29.89S
READING        CLEAR     53  36  52 W5        29.90R
LANCASTER      PTCLDY    48  38  68 W8        29.92S
COATESVILLE    PTCLDY    50  39  66 NW12      29.91S
POTTSTOWN      PTCLDY    51  36  56 NW3       29.90S
BLUE BELL      CLEAR     54  36  50 CALM      29.88R
DOYLESTOWN     CLEAR     53  38  56 CALM      29.87S
WILLOW GROVE   NOT AVBL
NORTH PHILA    PTCLDY    54  38  54 W8        29.89R
PHILADELPHIA   PTCLDY    57  38  48 W7        29.89R
$$



USA.gov is the U.S. government's official web portal to all federal, state and local government web resources and services.